A/2019 U5

Japanese version
Home page
Updated on November 5, 2020

---------------------------------------------------------------------

* Profile

Discovery Date October 22, 2019
Magnitude 21.16 mag
Discoverer Pan-STARRS 1 telescope (Haleakala)

* Pictures

* Orbital Elements

Epoch 2023 Apr. 6.0 TT = JDT 2460040.5
T 2023 Mar. 29.79188 TT                                 Rudenko
q   3.6240243            (2000.0)            P               Q
z  -0.0004272      Peri.  181.49460     -0.99908022     +0.00770223
 +/-0.0000059      Node     2.63682     -0.02314141     +0.73133357
e   1.0015480      Incl.  113.51999     -0.03609983     -0.68197646
H   10.0
From 325 observations 2019 Oct. 11-2020 Oct. 12, mean residual 0".4.

* Finding Charts

* Magnitudes Graph

        m1 = 0.0 + 5 log d + 15.0 log r

---------------------------------------------------------------------

The orbital elements are published on M.P.E.C. 2020-U96.
The charts are made with StellaNavigator Ver.10 (AstroArts).
The magnitudes graphs are made with Comet for Windows.

---------------------------------------------------------------------

Copyright(C) Seiichi Yoshida (comet@aerith.net). All rights reserved.